TimePDT,TemperatureF,Dew PointF,Humidity,Sea Level PressureIn,VisibilityMPH,Wind Direction,Wind SpeedMPH,Gust SpeedMPH,PrecipitationIn,Events,Conditions,WindDirDegrees,DateUTC
12:53 AM,53.1,46.0,77,29.96,5.0,ESE,3.5,-,N/A,,Haze,120,2012-10-31 07:53:00
1:53 AM,52.0,48.0,86,29.96,5.0,Calm,Calm,-,N/A,,Clear,0,2012-10-31 08:53:00
2:53 AM,51.1,46.0,83,29.96,5.0,Calm,Calm,-,N/A,,Haze,0,2012-10-31 09:53:00
3:53 AM,48.9,45.0,86,29.95,5.0,NE,3.5,-,N/A,,Clear,40,2012-10-31 10:53:00
4:53 AM,48.0,44.1,86,29.96,5.0,Calm,Calm,-,N/A,,Clear,0,2012-10-31 11:53:00
5:53 AM,48.0,44.1,86,29.97,5.0,Calm,Calm,-,N/A,,Clear,0,2012-10-31 12:53:00
6:53 AM,45.0,41.0,86,29.98,4.0,Calm,Calm,-,N/A,,Clear,0,2012-10-31 13:53:00
7:23 AM,42.8,39.2,87,29.98,2.0,Calm,Calm,-,N/A,,Clear,0,2012-10-31 14:23:00
7:33 AM,44.6,42.8,93,29.99,1.2,Calm,Calm,-,N/A,,Clear,0,2012-10-31 14:33:00
7:49 AM,44.6,42.8,93,29.99,2.0,Calm,Calm,-,N/A,,Clear,0,2012-10-31 14:49:00
7:53 AM,45.0,42.1,90,30.00,2.5,Calm,Calm,-,N/A,,Clear,0,2012-10-31 14:53:00
8:53 AM,55.0,51.1,86,30.03,2.5,NW,4.6,-,N/A,,Clear,310,2012-10-31 15:53:00
9:04 AM,55.4,51.8,88,30.02,3.0,NW,4.6,-,N/A,,Haze,310,2012-10-31 16:04:00
9:53 AM,60.1,52.0,75,30.03,4.0,WNW,3.5,-,N/A,,Haze,290,2012-10-31 16:53:00
10:53 AM,66.0,53.1,63,30.02,4.0,Calm,Calm,-,N/A,,Haze,0,2012-10-31 17:53:00
11:53 AM,71.1,53.1,53,30.01,4.0,Calm,Calm,-,N/A,,Haze,0,2012-10-31 18:53:00
12:53 PM,75.9,46.0,35,29.99,6.0,Variable,3.5,-,N/A,,Haze,0,2012-10-31 19:53:00
1:53 PM,77.0,42.1,29,29.96,10.0,WSW,3.5,-,N/A,,Clear,250,2012-10-31 20:53:00
2:53 PM,78.1,44.1,30,29.94,9.0,Calm,Calm,-,N/A,,Clear,0,2012-10-31 21:53:00
3:53 PM,80.1,43.0,27,29.94,9.0,Calm,Calm,-,N/A,,Clear,0,2012-10-31 22:53:00
4:53 PM,80.1,43.0,27,29.93,10.0,Calm,Calm,-,N/A,,Clear,0,2012-10-31 23:53:00
5:53 PM,72.0,53.1,51,29.94,6.0,NNW,9.2,-,N/A,,Haze,330,2012-11-01 00:53:00
6:53 PM,66.9,54.0,63,29.95,7.0,NNW,10.4,-,N/A,,Clear,330,2012-11-01 01:53:00
7:53 PM,64.9,54.0,68,29.97,6.0,NW,10.4,-,N/A,,Haze,310,2012-11-01 02:53:00
8:53 PM,63.0,53.1,70,29.98,9.0,NW,10.4,-,N/A,,Clear,310,2012-11-01 03:53:00
9:53 PM,61.0,52.0,72,29.99,10.0,NW,11.5,-,N/A,,Clear,310,2012-11-01 04:53:00
10:53 PM,60.1,52.0,75,29.99,10.0,NW,8.1,-,N/A,,Clear,320,2012-11-01 05:53:00
11:53 PM,59.0,53.1,81,29.99,10.0,NW,6.9,-,N/A,,Clear,310,2012-11-01 06:53:00